GFSSW_925_temp_021.txt.gz
Temp
18 19 19 19 19 19 19 20 20 20 20 20 20 20 21 21 22 21 21 22 23 23 23 23 23 23 23 20 20 17 17 18 22 23 23 22 22 23 21 22 21 22 23 23 23
18 19 19 19 19 19 19 19 19 19 19 20 20 20 20 21 21 19 22 22 22 23 23 22 21 21 18 21 19 17 16 20 21 22 22 22 22 22 22 20 21 21 21 22 22
18 18 18 18 18 18 18 18 18 18 19 19 19 20 20 20 20 22 22 22 22 22 22 22 22 21 21 20 20 18 19 19 21 21 21 22 21 20 21 21 20 21 18 17 15
17 17 17 16 16 16 16 16 17 18 18 19 19 20 20 20 22 22 22 23 22 22 22 22 21 21 20 21 20 21 20 21 22 20 21 22 21 20 19 20 17 16 15 13 11
15 15 15 14 15 15 15 16 16 17 18 18 19 19 20 19 19 21 22 22 22 21 21 20 20 19 20 20 21 20 20 20 19 18 19 19 19 20 19 18 17 13 12 10 9
13 14 14 14 15 15 15 16 16 17 17 18 19 19 19 19 20 21 21 21 21 21 21 20 20 20 20 20 20 20 20 19 18 19 19 20 20 20 21 17 15 12 9 8 8
13 13 14 14 15 15 15 16 16 17 17 18 18 18 17 18 20 20 20 20 20 20 20 20 21 21 20 20 20 20 19 17 18 19 19 17 20 19 19 16 14 10 8 8 7
13 13 14 14 15 15 15 16 16 17 17 17 18 17 17 19 18 19 19 19 19 20 20 20 21 19 20 19 17 19 18 18 20 19 20 20 19 20 19 16 13 9 7 7 7
12 13 13 14 14 14 15 16 17 17 16 16 16 16 17 18 18 18 19 19 19 19 20 20 20 17 17 16 16 15 17 16 18 19 20 20 19 19 17 15 11 8 8 8 6
12 13 13 13 13 14 14 15 15 15 15 15 15 17 17 18 18 18 18 19 17 17 18 17 13 14 13 15 16 16 16 16 17 20 19 19 17 17 18 18 11 8 7 6 6
12 13 13 13 13 13 14 15 14 14 14 16 17 18 17 16 17 17 18 18 17 16 16 15 15 15 15 15 17 18 16 17 17 18 19 17 16 16 16 13 9 7 7 6 6
12 12 13 13 13 13 13 13 16 16 16 15 15 16 17 18 16 16 17 17 17 16 14 14 14 16 16 15 16 16 17 15 16 16 16 16 16 16 15 13 11 8 7 6 5
12 13 13 13 13 13 13 15 16 15 14 15 15 15 16 17 16 15 16 15 16 14 13 14 17 16 16 15 15 15 14 15 16 17 16 16 14 16 11 9 8 7 6 6 5
12 13 13 12 12 13 14 15 15 15 13 15 15 16 16 15 16 15 15 16 16 15 13 14 15 17 15 16 15 15 15 15 16 16 15 15 14 15 13 9 8 6 5 5 4
12 13 13 12 13 13 15 15 15 15 14 16 15 15 15 15 14 14 15 16 14 14 14 16 16 15 15 15 16 16 16 15 16 14 14 15 13 13 12 11 8 6 5 4 4
13 13 13 12 12 13 14 15 15 14 14 15 14 14 15 15 14 13 14 15 15 15 15 14 15 16 16 15 15 15 16 13 11 12 12 13 14 14 13 14 8 6 5 4 3
12 13 12 12 13 13 14 14 15 14 17 15 14 13 14 13 13 13 13 13 13 13 13 15 15 16 16 17 15 15 14 13 12 11 13 12 12 14 13 10 9 7 5 4 4
13 13 13 13 13 14 13 14 13 16 14 15 14 13 14 13 14 12 12 13 13 14 12 14 15 14 14 15 15 13 14 13 13 11 12 12 12 14 8 6 7 7 5 4 3
13 12 12 12 13 13 13 13 15 15 15 14 15 14 14 14 14 13 12 12 13 12 16 13 14 15 14 15 16 14 13 14 12 4 8 13 13 10 7 6 5 5 4 4 3
12 12 12 12 12 11 13 15 15 15 15 15 15 15 13 14 14 12 12 13 15 12 15 15 14 15 14 15 14 14 13 12 10 11 9 12 12 13 8 7 6 5 5 4 4
12 11 11 12 10 12 14 14 13 14 15 15 15 14 14 13 13 12 13 14 13 13 14 13 14 13 14 13 13 13 13 13 12 10 11 9 13 11 10 8 7 6 5 4 4
10 13 9 10 12 12 14 13 14 14 14 15 14 15 14 13 12 12 13 14 12 12 13 13 11 9 12 12 11 13 12 12 13 12 8 10 13 9 11 8 7 6 6 4 4
10 9 8 9 13 12 11 12 13 13 13 13 13 14 13 13 14 12 12 13 12 13 12 12 10 7 12 13 11 11 11 11 10 8 9 11 12 8 8 8 7 7 5 5 4
8 9 9 9 9 12 11 12 12 12 12 12 13 13 13 13 13 13 11 12 11 12 13 13 11 12 13 12 11 11 10 9 10 8 12 12 11 8 9 8 8 7 6 5 4
6 8 8 9 9 11 12 11 12 11 12 12 10 12 13 12 11 11 12 11 10 10 11 12 10 9 10 10 10 10 10 8 9 9 9 10 9 9 8 7 6 6 6 4 4
6 7 6 8 10 10 11 10 12 12 11 11 11 12 12 12 12 10 11 10 11 9 10 8 7 7 7 8 9 9 8 8 9 8 7 8 8 10 7 6 5 5 4 4 3
3 3 6 6 8 10 10 10 11 11 8 10 11 10 10 11 10 8 9 9 10 8 8 7 5 6 10 6 6 6 5 7 8 8 8 8 9 1 5 5 4 3 4 4 3

GFSSW_925_temp_024.txt.gz
Temp
18 18 18 18 18 19 19 19 19 19 20 20 20 20 21 21 22 21 21 22 22 22 22 23 23 22 22 19 18 16 16 18 21 20 23 21 22 22 20 21 20 21 21 19 20
18 18 18 18 18 18 18 19 19 19 19 19 19 20 20 21 21 20 21 22 22 22 22 22 21 21 18 20 17 16 16 19 20 21 22 21 21 20 21 19 21 20 19 17 17
18 18 18 18 18 18 18 18 18 18 18 18 19 19 20 20 20 21 21 21 22 22 22 22 21 21 20 20 19 17 19 19 21 20 21 21 20 20 21 21 20 19 16 12 12
17 17 17 18 18 18 17 16 17 18 18 18 19 19 20 20 22 21 21 22 22 21 22 21 19 20 19 20 19 20 19 19 21 20 20 21 20 20 19 20 16 11 11 10 9
17 16 16 16 16 16 15 16 16 17 17 18 18 19 20 19 20 21 21 22 21 21 21 20 20 19 20 19 20 20 20 19 19 18 18 18 19 19 19 18 12 11 9 8 8
16 14 14 14 15 15 15 15 16 16 17 18 18 19 19 19 20 20 21 21 21 21 20 20 19 19 19 19 20 19 19 17 17 19 18 19 19 19 17 13 11 10 8 7 7
14 13 13 14 14 14 15 15 15 16 17 18 18 18 17 18 20 20 20 20 20 20 19 20 20 20 19 20 18 19 19 17 18 19 19 16 20 18 17 15 11 9 7 6 6
13 13 13 14 14 14 14 15 16 16 17 18 18 17 17 19 18 19 19 19 19 20 20 20 20 18 19 18 16 18 16 17 19 18 19 19 19 20 15 15 11 8 6 6 6
12 12 13 13 13 13 14 14 15 16 16 16 16 17 17 18 17 18 18 19 19 19 19 20 19 16 17 16 16 14 17 16 17 18 19 19 19 19 15 14 10 7 6 6 5
12 12 13 13 13 13 14 14 15 15 15 15 15 16 16 17 17 17 18 18 17 17 17 16 13 14 12 15 16 16 15 16 16 19 18 18 17 17 16 16 10 6 6 5 5
11 12 12 13 12 12 13 14 14 14 13 16 17 17 17 16 17 17 17 17 17 16 16 15 15 14 14 15 17 16 16 17 17 17 18 17 16 16 16 10 7 6 6 5 5
11 12 12 12 13 12 12 12 15 16 15 15 14 15 17 17 16 16 17 17 17 16 14 14 14 16 16 15 16 16 16 15 15 15 16 15 15 15 15 12 9 6 5 5 5
11 12 12 13 12 12 12 14 15 15 14 15 14 14 15 16 16 15 15 15 16 14 13 14 17 14 16 14 14 14 14 15 16 16 15 15 14 14 10 8 7 6 5 5 4
12 12 12 12 12 12 12 15 15 15 14 15 15 15 15 15 16 14 15 15 15 15 13 14 15 16 14 15 14 14 13 15 15 15 14 15 13 14 12 8 7 5 4 4 3
12 12 12 12 13 12 15 15 16 16 14 16 14 15 14 15 13 14 14 15 14 14 14 15 14 14 15 15 14 15 14 13 14 13 14 14 12 13 11 11 7 5 4 4 3
12 12 12 12 12 13 14 15 16 15 14 15 13 14 14 14 13 13 14 14 14 14 14 14 14 14 15 14 15 13 14 12 10 11 11 13 14 13 12 13 8 5 4 3 3
12 12 12 12 13 13 13 14 15 14 16 14 13 12 14 13 13 13 12 12 12 12 13 14 14 15 15 15 15 14 14 13 12 11 13 12 12 14 13 10 10 7 4 3 3
12 12 12 12 12 14 12 13 13 16 14 13 13 12 13 12 13 12 11 11 12 13 11 13 14 13 13 15 14 13 14 12 13 11 12 11 12 14 8 6 5 6 4 3 2
12 11 11 12 12 13 12 14 15 14 15 13 14 13 13 13 13 12 11 11 12 11 15 13 15 14 14 14 15 13 13 13 12 2 8 12 13 10 8 6 4 4 4 3 2
11 12 12 12 12 11 13 15 14 15 14 14 16 14 13 12 13 12 11 12 14 12 14 14 15 14 13 14 13 14 12 13 10 11 10 12 12 13 10 8 5 4 4 3 3
11 12 13 12 11 11 14 14 15 15 15 15 15 14 13 12 13 11 13 14 13 11 13 13 15 13 13 13 12 12 12 12 12 10 12 9 13 10 11 7 5 5 5 3 3
12 13 11 11 13 13 13 14 14 14 14 15 15 15 14 13 12 12 13 14 12 12 13 13 11 9 12 11 11 12 12 12 13 11 8 10 14 8 9 7 6 6 5 4 3
11 11 10 12 14 13 12 14 14 13 14 13 14 15 14 13 14 12 12 12 11 12 13 12 11 8 10 12 11 11 10 11 10 9 9 12 13 8 8 7 6 6 5 4 4
9 10 9 9 11 15 14 13 13 12 13 12 12 13 13 13 13 12 11 11 11 12 13 13 10 11 13 12 11 11 10 9 12 12 14 13 13 10 9 9 7 6 6 4 4
7 9 8 10 11 12 14 13 13 12 11 12 10 13 15 12 12 11 11 10 10 10 11 13 10 10 11 12 10 11 11 8 9 11 13 14 11 9 9 8 7 6 6 5 4
7 7 6 8 9 11 13 13 13 12 11 10 11 11 13 12 12 10 11 11 11 9 10 9 10 8 7 9 9 9 9 8 10 10 9 8 8 9 8 7 6 5 5 4 4
3 4 7 7 8 10 11 12 12 12 8 10 11 11 11 12 9 7 9 9 10 10 9 8 6 6 10 5 7 8 8 8 9 8 10 9 10 3 6 5 4 4 3 4 3

GFSSW_925_temp_027.txt.gz
Temp
17 18 18 18 18 18 19 19 19 19 19 19 19 19 20 21 22 21 21 21 22 22 22 23 23 22 22 18 17 15 17 18 20 19 22 21 22 21 19 21 20 19 18 14 15
17 17 17 17 18 18 17 18 18 18 18 18 19 20 20 21 21 20 21 21 22 22 22 22 20 21 17 19 17 17 17 20 19 19 21 20 21 20 21 19 21 20 16 14 14
17 16 16 16 16 17 17 17 16 17 18 19 19 20 20 21 21 21 21 21 21 21 22 22 21 20 20 19 18 17 19 19 20 20 20 20 20 19 20 20 20 20 16 11 10
17 17 16 17 16 15 15 15 16 17 18 18 19 20 20 21 22 21 21 21 21 21 22 21 19 19 18 20 18 21 19 19 20 20 19 20 19 20 19 19 14 11 10 9 9
16 17 17 17 16 15 15 15 16 17 18 18 19 19 20 19 20 21 21 21 21 21 21 19 20 19 20 19 19 20 19 18 19 18 18 18 19 19 18 12 10 10 9 8 7
16 16 16 16 15 14 14 15 15 16 17 18 18 19 19 19 20 20 21 21 21 21 20 20 18 18 18 19 19 19 18 17 17 18 18 18 18 18 16 11 10 9 8 7 7
15 15 15 14 14 14 14 15 15 16 17 18 18 18 17 18 19 19 20 20 20 20 19 20 20 20 18 18 18 18 19 17 18 18 19 16 17 17 15 12 10 8 7 7 6
13 13 13 13 14 14 14 15 15 16 17 17 18 17 17 18 18 18 19 19 19 20 20 19 20 17 18 17 16 18 16 18 19 18 18 18 20 18 14 14 11 8 7 7 5
12 12 12 13 13 13 14 14 15 16 16 16 16 17 17 17 17 18 18 19 19 19 19 19 18 15 16 16 16 14 17 16 17 17 18 19 19 18 14 14 10 8 7 7 6
12 12 12 12 13 13 13 14 15 15 15 15 15 16 16 17 17 17 18 18 17 17 17 16 13 13 12 15 17 16 16 15 17 18 18 18 17 16 15 13 10 7 6 6 6
11 11 12 12 12 12 12 14 14 14 13 16 17 17 16 16 16 16 17 17 16 15 16 14 15 15 15 15 17 15 16 17 16 17 18 16 16 17 14 11 8 7 6 6 5
10 11 11 12 12 12 12 12 15 15 15 14 14 15 16 17 16 15 17 17 16 15 13 14 14 15 15 15 16 15 16 15 15 15 16 15 15 15 14 12 9 8 6 6 5
11 11 11 11 12 12 12 13 15 15 14 15 13 14 15 16 16 14 15 14 15 13 13 14 17 13 15 14 14 14 14 14 16 15 15 14 14 14 11 8 7 7 6 5 5
11 11 11 11 12 12 12 15 14 15 13 14 14 14 14 15 16 14 15 15 15 14 12 14 15 15 14 15 14 14 13 14 15 15 15 14 14 14 12 9 7 5 5 4 4
11 11 11 11 12 12 14 15 15 15 13 15 13 14 13 15 13 13 14 15 13 14 14 15 13 14 14 14 14 15 12 13 14 13 13 14 13 13 12 13 8 5 4 4 3
12 11 11 11 11 13 14 14 15 14 13 14 12 13 14 14 13 12 14 14 13 13 14 14 14 13 14 13 14 11 12 12 10 11 11 13 14 14 14 13 9 6 5 4 3
12 11 11 11 12 13 14 14 14 13 16 13 12 12 13 12 12 12 12 12 12 12 12 14 14 14 14 13 14 14 13 13 13 11 13 11 12 14 13 11 10 7 5 4 3
12 11 11 11 12 13 12 13 13 16 14 12 12 11 13 12 12 11 11 11 11 13 11 12 14 13 13 14 13 12 13 13 13 12 13 10 12 14 10 7 5 6 5 3 3
12 11 11 11 12 13 12 14 15 14 15 13 13 13 12 12 12 11 11 11 12 11 15 12 14 13 13 13 14 13 13 13 11 2 9 12 13 13 8 8 5 4 4 3 3
11 11 11 11 12 11 12 14 14 15 13 14 16 14 12 11 12 11 10 12 13 12 14 14 15 13 13 13 13 14 12 13 10 12 9 12 13 15 10 10 6 4 4 4 3
11 12 12 11 11 12 13 14 15 15 15 14 15 14 13 12 12 10 12 13 12 11 13 13 15 12 12 12 12 12 12 11 12 11 11 10 13 10 12 10 7 5 5 4 4
12 13 11 11 13 13 14 13 15 16 14 15 15 15 14 13 13 12 12 14 12 12 13 13 12 10 12 11 11 12 12 12 12 11 8 10 14 9 10 8 7 6 5 4 4
12 12 11 12 14 13 14 13 14 14 15 16 15 14 14 13 15 12 11 12 11 13 13 12 11 10 11 12 10 10 10 10 10 9 9 11 11 8 7 7 6 6 4 5 4
9 11 10 12 14 15 13 14 13 14 14 14 14 14 13 14 15 12 11 11 10 12 13 14 11 12 16 13 11 10 9 9 12 9 11 13 14 9 9 9 7 6 5 4 4
8 9 9 12 11 13 14 14 14 14 14 14 12 15 15 14 14 14 11 10 10 11 11 13 12 9 11 12 11 11 10 9 10 12 13 14 12 10 10 8 7 6 5 4 4
7 7 7 8 9 11 12 14 14 14 12 12 14 13 15 16 15 13 13 11 11 9 10 9 11 9 8 9 10 10 9 9 11 11 10 11 11 10 9 7 6 6 5 5 4
3 4 8 8 8 10 11 13 13 14 11 13 13 14 13 14 11 8 11 10 10 10 9 9 8 9 12 5 8 9 9 9 10 8 11 9 12 6 7 7 6 5 4 4 4

GFSSW_925_temp_030.txt.gz
Temp
17 17 18 18 18 18 18 18 19 19 19 19 19 20 20 21 21 21 22 21 21 22 22 22 22 22 22 23 22 22 27 26 25 25 26 24 25 24 23 25 24 23 22 17 15
17 17 17 18 18 18 18 18 18 18 19 19 19 20 20 21 21 21 21 21 22 22 22 23 24 23 25 23 23 25 26 26 25 25 26 25 25 25 25 25 24 23 18 16 16
17 17 17 17 18 18 17 17 16 17 18 19 19 20 20 21 23 22 21 21 21 21 22 22 22 24 24 23 23 22 26 23 23 24 24 24 24 24 25 25 24 24 20 16 16
17 17 17 17 17 17 16 16 16 16 17 18 19 20 20 21 24 21 21 21 21 21 22 21 23 24 24 24 22 24 22 23 22 22 22 23 23 24 24 23 19 18 16 15 16
16 17 17 16 16 15 15 15 16 17 17 18 18 19 20 23 23 21 21 21 21 21 21 23 24 23 24 23 22 23 22 21 22 21 21 21 23 24 23 18 16 15 15 15 14
15 15 16 16 15 14 14 15 15 16 17 18 18 19 20 23 20 20 21 21 21 21 20 22 23 23 22 22 23 22 21 22 22 22 21 21 22 21 20 17 16 16 15 14 12
13 13 14 15 15 15 14 15 15 16 17 18 18 18 19 22 19 19 20 20 20 20 21 20 20 23 22 21 20 20 23 23 23 21 22 21 21 22 20 17 17 15 14 12 11
13 13 13 13 13 14 14 15 15 16 17 17 18 18 21 18 18 18 19 19 19 20 20 19 20 20 21 20 21 22 21 23 22 21 20 21 25 22 18 18 18 16 15 13 11
12 13 12 13 13 13 14 14 15 15 16 16 17 18 21 17 17 18 18 19 19 18 18 19 19 20 20 22 22 21 24 22 23 21 21 21 24 21 19 19 19 17 15 13 12
10 12 12 12 12 13 13 14 14 15 15 15 15 18 17 19 16 17 18 18 19 19 20 20 20 21 20 22 24 23 22 21 22 21 20 22 23 21 19 19 20 18 15 13 12
10 11 11 12 12 11 12 14 15 16 13 20 20 20 17 15 16 16 17 18 19 20 21 18 21 21 23 23 22 22 22 23 22 20 20 22 22 24 21 19 18 17 14 13 11
10 10 11 11 11 11 12 14 16 15 18 16 16 16 16 16 17 16 17 20 19 20 18 19 20 23 19 19 20 19 21 22 21 18 19 21 21 22 21 20 19 18 14 12 10
11 10 10 11 11 11 12 13 15 15 18 17 15 16 16 16 19 17 17 17 19 17 19 21 21 18 19 17 18 19 20 21 21 18 18 18 21 21 19 14 13 14 14 12 11
11 11 11 11 11 12 12 13 14 15 19 19 16 17 15 17 17 14 16 18 17 19 18 19 18 17 17 19 19 20 19 19 18 19 20 18 22 21 20 16 12 11 12 11 10
11 11 11 11 12 12 14 14 15 15 17 18 14 14 14 18 15 14 14 17 17 17 18 20 16 16 18 19 18 20 16 18 17 18 17 18 19 21 16 18 15 12 11 11 10
12 12 11 11 11 13 14 14 15 17 17 15 14 14 15 15 14 14 15 16 15 16 16 18 15 17 18 14 17 14 16 16 16 17 17 19 19 22 21 20 16 13 11 10 9
11 12 11 11 12 13 13 14 16 17 18 15 14 14 15 14 13 14 15 15 17 16 17 16 16 16 15 15 14 16 18 18 17 16 18 15 16 21 21 16 16 13 11 10 9
11 11 11 11 12 13 12 14 15 19 19 14 13 14 15 14 14 13 14 16 15 15 16 17 18 16 16 18 17 16 19 19 17 17 19 12 16 20 13 11 10 11 11 9 8
11 11 11 11 12 13 12 14 17 19 20 15 14 15 15 14 15 14 14 16 17 15 19 17 17 14 14 15 18 16 16 17 14 8 15 19 17 18 11 11 10 10 10 9 8
11 11 11 11 11 11 12 14 16 18 18 16 18 17 16 15 15 15 14 16 15 15 16 18 18 14 13 15 14 16 17 16 16 16 16 18 18 21 14 14 11 9 9 9 8
11 12 13 11 11 11 13 14 16 16 16 17 18 18 18 15 16 15 16 16 17 14 16 17 17 14 14 15 17 14 16 15 17 17 17 19 20 18 19 16 13 12 10 10 9
12 13 11 11 12 13 13 14 15 17 15 18 17 19 17 16 16 16 16 19 16 14 14 16 15 14 15 13 12 17 17 17 18 15 15 14 19 13 14 15 14 14 11 10 10
12 13 11 12 13 13 13 14 15 15 17 17 16 17 17 17 17 16 16 16 15 15 15 15 14 15 14 13 11 13 14 16 18 13 15 16 18 11 11 12 12 13 11 10 9
11 12 12 12 14 14 13 14 14 15 16 16 17 17 16 16 16 17 15 13 13 16 14 17 15 17 18 19 17 14 14 14 16 16 17 16 18 14 13 13 13 11 11 10 9
9 10 9 12 13 14 14 15 14 14 14 15 14 16 16 16 16 16 16 12 11 12 13 16 15 16 18 16 15 15 15 13 15 17 17 19 16 16 15 13 15 14 11 10 9
7 7 7 8 9 13 14 13 14 14 13 14 14 15 15 15 17 16 16 16 14 10 11 12 14 15 13 14 14 14 14 14 15 16 17 17 16 17 15 14 12 11 10 9 9
4 5 7 9 8 10 13 14 13 15 15 15 14 15 14 15 17 16 15 16 15 13 11 11 12 10 13 11 10 11 12 13 14 15 16 14 16 11 12 11 12 12 10 10 10

GFSSW_925_temp_033.txt.gz
Temp
17 17 17 18 18 18 18 19 19 19 19 19 19 20 20 21 21 21 25 22 21 22 22 23 24 25 26 26 26 26 29 29 29 29 29 27 28 27 27 28 27 25 25 21 19
17 18 18 18 18 18 18 18 19 19 19 19 19 19 20 20 20 23 21 21 22 22 22 25 27 26 28 26 26 28 28 29 29 29 29 28 28 27 27 27 27 24 21 20 20
16 17 17 17 17 18 18 18 18 19 19 19 19 19 20 20 23 24 21 21 21 22 22 24 25 27 27 26 26 27 28 27 27 27 28 27 27 27 27 27 28 27 23 20 20
15 16 16 17 17 17 17 17 18 18 19 19 19 20 20 20 25 21 21 21 21 21 23 24 26 27 27 26 26 26 26 26 25 24 25 26 27 26 27 26 23 23 22 20 20
16 16 16 16 16 16 17 17 17 17 18 18 19 19 20 24 25 21 21 21 21 21 24 25 26 26 26 26 25 26 25 25 25 23 24 24 25 26 26 22 21 19 19 19 18
15 15 16 16 15 16 15 15 16 16 17 18 19 19 20 23 21 21 21 21 21 22 24 25 26 26 26 26 25 25 24 25 25 25 24 23 25 24 26 22 20 20 20 18 17
12 13 14 15 14 14 15 15 15 16 17 18 18 18 21 24 19 19 20 19 20 22 24 23 24 25 25 24 23 23 24 26 26 25 24 23 23 22 26 21 21 21 19 17 16
11 11 12 13 14 14 14 14 15 16 16 17 18 18 23 20 18 19 19 19 19 20 21 21 22 24 24 23 24 24 24 25 25 23 22 23 26 26 22 21 21 21 20 17 15
11 10 11 12 13 13 13 14 15 15 16 17 17 19 23 18 19 19 19 21 20 20 19 20 22 24 22 24 24 24 25 26 26 24 23 22 26 23 22 22 22 21 20 18 16
10 10 11 12 12 12 13 14 14 15 15 16 16 20 20 21 18 18 18 20 21 21 21 22 23 23 23 25 25 26 25 26 25 24 22 24 24 24 22 22 23 23 20 18 17
10 10 10 11 12 12 13 14 17 18 15 22 22 23 20 16 17 18 18 20 21 22 22 22 22 22 24 25 26 25 24 25 26 23 22 24 25 26 24 22 23 24 21 18 16
10 10 10 11 11 11 12 17 18 16 19 19 19 20 18 18 19 18 18 21 21 21 22 20 21 24 25 24 24 23 23 24 25 22 21 23 24 25 25 23 23 24 22 19 15
11 10 10 10 11 11 13 15 15 15 19 21 19 19 18 18 21 19 19 21 21 21 21 23 24 21 21 21 21 22 22 24 24 21 20 22 22 23 24 25 24 21 22 19 16
11 11 10 10 11 13 13 13 14 15 19 22 18 19 18 20 20 18 19 20 19 21 22 22 23 20 20 22 22 22 24 22 22 21 21 21 22 25 25 21 19 18 18 17 16
11 11 10 10 15 13 14 14 14 15 18 22 17 15 18 20 18 15 17 18 21 20 20 22 19 19 20 22 22 22 20 21 21 20 20 21 19 23 25 24 21 18 16 16 15
11 11 11 10 11 13 14 14 15 18 18 17 16 16 16 18 16 15 16 18 19 19 18 21 17 19 21 17 20 19 19 18 18 19 18 20 21 23 24 21 22 18 16 15 13
11 11 11 10 12 13 13 14 15 17 22 19 16 16 18 16 16 17 16 16 19 18 19 20 19 18 18 18 16 18 19 19 18 17 18 18 20 23 24 19 21 17 15 14 13
11 10 10 11 12 13 13 15 14 19 21 18 17 16 17 16 16 15 16 17 18 20 22 20 20 19 18 20 19 17 20 20 18 20 21 14 18 22 21 17 15 18 15 14 12
11 10 10 10 11 12 12 13 15 19 22 20 17 17 16 16 17 15 16 19 20 19 20 21 21 18 18 19 20 18 18 20 17 11 16 20 20 21 15 14 14 15 14 12 11
11 11 11 10 11 11 12 13 15 19 22 23 19 19 18 17 16 16 17 19 19 19 20 22 20 17 16 16 17 18 19 16 17 16 18 22 22 22 15 16 14 13 13 12 11
11 12 12 11 11 11 13 12 15 19 21 21 20 21 21 19 17 16 19 20 20 18 18 20 19 16 15 16 18 16 17 18 19 19 19 20 22 24 23 20 16 14 13 13 12
11 13 11 11 12 12 12 14 16 17 19 19 20 20 20 21 17 17 18 21 19 17 16 19 19 19 18 17 18 19 19 19 18 16 17 19 21 17 22 22 17 16 14 13 12
11 12 11 11 13 12 13 14 15 15 17 18 18 19 21 20 17 19 20 21 19 17 17 17 16 15 17 15 13 15 17 18 18 16 16 17 20 16 16 18 17 17 14 13 12
10 12 12 12 13 14 13 13 13 15 16 17 18 18 18 19 19 20 20 18 18 18 16 17 16 16 18 20 19 16 16 16 17 16 18 18 20 16 16 16 16 16 14 13 12
9 10 9 13 13 13 14 16 14 14 15 16 16 17 17 17 18 18 19 15 13 14 15 16 14 17 17 18 19 18 17 16 16 17 18 20 20 21 17 17 17 16 15 13 12
7 8 8 9 10 12 13 13 15 16 15 14 15 16 17 16 17 17 18 18 16 13 13 13 14 15 14 16 17 17 17 17 16 17 18 19 20 22 19 18 17 16 14 13 12
5 6 8 7 9 10 12 13 14 16 16 16 15 15 15 17 18 19 18 16 17 15 12 12 11 11 13 14 14 11 14 16 17 17 18 17 19 15 17 16 16 15 13 12 12

GFSSW_925_temp_036.txt.gz
Temp
17 17 17 17 18 18 18 18 19 19 19 19 19 20 20 21 22 22 24 22 22 23 23 24 24 26 26 26 26 27 24 25 29 28 27 26 26 27 26 26 25 23 21 20 20
16 17 17 17 17 17 17 18 18 19 19 19 19 20 20 21 22 23 22 22 22 22 23 25 27 27 26 26 26 25 24 25 26 27 27 26 27 25 26 26 23 21 20 21 21
14 15 16 16 16 17 17 18 18 18 19 19 19 20 20 21 22 22 22 22 22 22 22 24 25 26 26 26 26 27 25 26 26 24 24 26 26 27 26 25 25 22 19 20 20
14 14 15 16 16 16 16 17 17 18 19 19 19 20 21 21 24 21 22 22 22 22 23 25 25 26 26 25 26 24 26 26 25 24 25 25 26 26 25 22 21 20 19 20 18
12 13 14 15 16 16 16 16 17 17 18 19 19 20 21 23 23 21 22 22 22 22 24 25 25 26 25 26 25 24 25 25 24 23 24 24 24 24 24 19 18 19 19 17 16
12 12 12 13 15 15 15 16 17 17 18 18 19 20 20 22 21 21 22 22 22 22 24 24 25 24 24 25 24 23 24 25 24 24 23 23 23 24 24 18 18 18 17 16 16
11 12 12 12 12 13 14 15 16 16 17 18 18 19 21 22 20 20 21 21 21 22 24 23 24 24 24 25 23 24 23 23 23 23 23 23 21 22 22 19 18 18 17 15 15
11 11 12 12 12 12 13 14 16 16 17 18 18 18 20 20 19 20 20 20 20 21 22 22 22 23 23 23 23 23 24 22 23 22 21 21 21 22 20 19 19 18 16 14 15
10 11 10 12 12 12 12 14 15 16 17 17 18 19 21 19 19 20 20 21 20 20 20 21 22 23 22 22 22 22 21 22 22 22 20 20 22 21 20 19 19 18 16 15 14
10 10 10 11 11 12 12 14 15 15 16 16 17 18 19 20 18 19 19 21 21 20 21 21 21 20 20 20 20 23 22 23 23 21 21 20 19 21 19 19 19 18 17 15 14
11 10 10 10 11 11 13 14 15 15 16 19 20 22 20 17 17 18 19 20 21 21 19 20 19 19 20 21 23 23 22 22 23 21 22 20 21 22 20 19 19 18 17 15 14
12 11 10 10 10 11 12 16 15 15 17 18 19 20 19 18 18 18 19 19 20 19 20 18 18 21 23 23 22 22 21 20 22 20 21 20 20 21 22 19 20 20 18 15 12
12 11 11 11 10 10 12 15 16 16 17 20 19 19 18 18 20 18 18 19 19 19 20 20 22 22 22 22 21 21 20 21 21 20 20 18 18 20 21 22 20 20 20 16 12
12 11 11 11 10 11 12 14 15 16 17 20 18 19 18 19 18 19 18 20 19 19 20 20 21 21 21 20 20 20 22 21 21 19 17 19 16 20 21 21 21 18 16 14 12
12 11 11 11 14 12 14 14 15 15 15 20 17 16 18 19 17 16 17 18 18 18 20 20 19 18 19 20 21 20 19 20 20 18 18 18 16 19 21 21 20 15 14 13 12
12 11 10 10 12 14 14 15 14 16 16 18 15 15 16 17 16 15 15 17 18 19 19 19 18 19 19 16 19 17 18 19 18 17 14 17 17 18 21 21 20 16 14 13 11
12 12 10 10 11 12 13 14 13 14 21 18 16 16 17 16 15 16 15 15 17 16 16 17 17 18 17 16 17 18 17 16 14 13 14 17 16 19 20 20 20 17 14 13 11
11 12 11 10 11 13 13 13 11 14 18 18 17 16 16 16 16 15 15 15 16 17 19 17 17 17 16 18 16 15 17 15 16 15 15 14 15 17 16 14 15 15 14 12 10
11 10 10 10 11 11 12 11 12 15 18 19 17 16 16 16 16 15 15 16 17 17 18 20 19 18 17 18 18 16 16 18 15 9 11 15 16 19 14 13 14 13 12 11 10
10 11 11 10 10 10 12 10 12 16 18 19 18 18 16 16 14 14 15 17 18 18 19 21 19 17 14 17 17 17 17 14 14 12 13 16 18 18 14 14 12 12 12 11 10
10 11 13 10 10 11 11 10 13 16 17 17 19 19 19 17 15 14 16 18 18 18 18 19 18 14 14 14 16 14 15 16 16 14 14 14 17 21 18 16 13 13 12 11 10
10 12 12 10 12 12 12 12 14 16 17 18 19 20 20 20 16 16 15 18 19 18 17 17 17 12 14 15 16 17 16 16 14 15 15 13 19 19 19 16 14 13 12 11 10
10 11 11 11 13 12 12 12 13 15 15 17 18 19 20 20 19 17 17 18 18 17 16 16 14 14 15 13 14 14 15 17 18 14 16 14 17 14 14 16 14 12 11 11 10
10 11 11 11 12 14 12 12 12 14 14 16 18 18 17 18 19 18 17 18 16 17 15 17 14 16 17 18 16 13 14 16 16 15 15 17 18 15 15 14 14 12 12 11 10
9 11 10 11 12 13 13 13 13 13 14 15 15 16 16 15 17 17 17 15 14 14 15 16 13 15 17 18 17 14 14 15 15 16 16 17 17 19 15 13 14 13 11 11 10
7 8 8 9 9 10 13 13 14 14 14 13 14 15 16 16 17 16 18 16 14 13 13 13 13 14 14 16 14 15 16 14 15 15 16 17 17 19 17 15 13 13 12 11 10
6 6 7 9 11 11 8 10 13 14 15 16 14 15 15 15 16 17 17 16 15 13 11 10 11 11 13 14 13 13 13 15 15 15 16 15 17 16 17 14 14 13 12 11 10

GFSSW_925_temp_042.txt.gz
Temp
14 15 16 17 17 17 18 18 18 18 18 19 19 20 20 21 22 22 21 22 22 23 23 24 24 25 24 22 22 19 18 20 23 21 24 23 24 23 22 21 18 17 17 19 19
16 16 16 16 17 17 17 18 18 18 18 19 19 19 20 21 22 21 22 22 22 23 23 23 23 24 20 23 20 18 17 23 23 22 22 22 23 22 23 21 18 17 17 18 18
16 16 17 17 17 17 17 18 18 18 18 19 19 19 20 21 21 21 22 22 22 22 23 23 23 24 23 23 22 20 20 23 22 22 22 22 23 22 20 21 19 18 16 16 17
16 17 17 17 17 17 17 17 18 18 18 19 19 20 20 21 22 22 22 22 22 22 23 23 23 23 21 22 23 23 23 23 22 22 23 22 23 23 22 22 20 17 15 15 13
14 15 16 17 17 17 17 17 17 18 18 18 19 20 20 20 21 22 22 22 22 22 23 22 22 22 22 22 22 22 22 23 21 21 22 22 22 22 21 17 15 15 15 13 13
11 14 15 16 16 17 17 17 17 17 17 18 18 19 19 20 21 21 22 22 22 22 23 22 22 22 22 22 22 21 21 22 21 21 21 21 21 22 20 14 14 14 13 12 12
10 10 14 14 15 16 17 17 17 17 18 17 17 18 17 19 20 21 21 21 22 22 22 22 22 22 21 22 21 21 22 20 20 20 21 20 20 19 18 14 14 13 12 11 12
12 11 10 13 14 14 16 17 17 17 17 17 17 17 17 19 19 20 20 21 21 21 22 22 22 21 21 21 20 21 19 19 21 19 20 20 19 21 14 14 14 12 11 11 11
13 12 11 10 12 14 15 16 16 17 17 17 17 16 17 18 18 19 20 20 20 21 21 22 22 19 19 17 17 17 18 18 19 18 19 19 19 20 13 14 14 12 11 10 10
14 13 12 10 10 11 13 16 15 16 15 15 15 16 17 18 18 19 19 20 19 19 19 19 15 16 15 16 17 17 18 18 19 20 19 18 16 17 15 15 15 12 11 10 10
13 14 12 11 10 10 13 15 14 14 13 16 16 17 16 17 18 18 19 19 19 18 17 18 16 16 16 16 18 19 18 20 20 20 19 17 17 18 16 15 14 13 12 11 11
13 14 12 11 10 10 11 12 15 16 14 15 14 16 18 18 16 17 19 18 17 17 16 16 15 17 17 17 18 18 18 16 17 19 17 18 16 16 16 16 16 16 14 13 10
12 12 11 11 10 10 11 14 15 15 14 15 14 15 16 17 17 15 17 16 17 16 15 15 19 17 17 17 17 17 16 17 18 18 18 17 15 17 18 16 16 15 17 15 12
11 12 12 10 10 10 10 15 15 15 13 15 16 16 15 16 16 17 18 17 16 16 15 15 17 18 16 17 17 17 17 18 19 18 16 17 16 16 17 17 16 17 15 15 12
11 11 12 10 11 10 13 14 14 15 13 17 16 16 15 18 15 15 16 17 15 16 16 17 16 16 17 17 17 18 18 18 18 16 16 16 14 15 17 16 18 20 16 14 11
10 10 11 10 10 12 13 14 14 14 13 17 14 15 15 16 14 14 16 17 16 17 17 17 16 17 17 16 17 16 16 14 13 13 13 16 15 15 17 19 18 17 15 13 10
9 9 10 10 11 12 12 12 10 11 13 15 14 14 15 14 14 14 14 15 15 16 16 16 16 17 16 17 16 16 16 14 13 12 15 14 13 19 17 17 17 18 16 10 9
8 9 10 10 10 11 11 10 10 11 12 14 13 13 14 14 14 13 13 14 15 16 14 16 16 15 15 17 16 15 15 13 14 13 13 13 13 16 15 17 14 13 13 9 7
7 9 9 10 10 11 10 10 13 11 14 14 14 13 13 14 13 13 12 13 15 14 17 14 15 15 15 16 18 14 15 16 14 4 9 14 14 15 14 14 13 12 11 8 7
7 7 10 10 10 10 10 11 12 12 14 16 16 15 13 12 13 12 11 13 15 15 16 17 16 13 15 16 15 15 15 14 11 12 11 14 13 17 16 15 15 13 10 8 7
7 8 11 11 10 11 11 10 11 13 15 15 16 16 15 13 13 12 13 15 15 14 16 17 16 14 14 13 14 14 14 15 14 11 12 12 16 14 18 16 16 14 12 9 8
7 8 12 10 11 11 12 12 12 12 13 13 15 16 15 14 13 12 13 14 14 14 14 15 16 12 12 13 13 14 15 14 13 13 11 12 19 16 16 16 14 14 12 9 9
7 7 11 10 11 11 12 13 13 13 14 13 14 14 15 15 15 14 13 13 13 15 14 15 14 12 13 12 13 13 13 16 14 11 15 14 18 13 14 15 14 13 11 9 8
6 7 7 9 11 11 12 12 13 13 14 14 15 14 15 16 15 14 13 14 13 15 14 17 14 15 16 17 13 12 12 13 16 15 16 16 19 17 17 16 16 12 10 8 7
6 7 8 9 9 11 10 13 13 12 13 14 13 14 14 14 14 14 15 14 14 13 14 16 14 15 17 16 14 14 15 14 14 16 16 19 18 19 17 15 14 14 10 8 7
5 6 6 8 8 9 11 11 8 13 14 12 13 14 15 15 15 15 15 15 15 12 15 13 14 15 14 15 13 14 12 14 15 16 16 17 17 18 16 16 14 12 11 9 8
5 6 6 9 8 8 9 10 11 11 10 11 12 13 14 14 15 16 15 15 14 15 13 12 14 13 13 14 12 12 14 14 14 15 15 15 17 14 16 16 15 13 11 11 10

GFSSW_925_temp_048.txt.gz
Temp
15 15 16 16 17 17 17 18 18 18 18 19 19 19 20 21 21 22 21 21 22 22 23 24 24 23 23 19 18 16 17 18 19 19 22 20 22 19 18 18 18 17 16 17 18
13 15 16 16 16 16 17 17 18 18 18 19 19 19 20 21 21 21 21 21 22 22 23 23 22 22 18 21 18 16 16 19 19 18 22 20 21 19 21 19 19 17 16 15 16
13 13 15 16 16 16 16 17 17 18 19 19 19 20 21 21 21 21 21 21 22 22 22 22 22 22 21 20 20 18 19 19 21 21 20 20 21 19 19 20 18 18 16 12 13
12 14 14 15 16 16 17 17 17 17 18 19 19 20 21 21 22 20 21 21 21 22 22 22 21 21 20 21 20 22 20 20 21 20 20 20 19 20 18 21 18 17 14 12 12
13 13 14 15 16 16 17 17 17 17 18 18 19 20 20 20 20 20 21 21 21 22 22 21 21 20 20 20 21 21 20 21 20 20 20 20 21 20 19 18 16 15 13 12 12
13 14 15 15 16 16 16 17 17 17 18 18 19 20 20 20 20 20 21 21 21 22 21 21 21 20 19 20 20 20 20 20 20 20 20 21 20 20 20 15 16 13 13 11 12
11 12 14 15 16 16 16 16 17 17 17 18 18 18 18 20 20 20 20 21 21 21 20 20 21 21 20 20 19 19 21 19 19 19 20 19 19 18 18 15 16 13 12 11 11
12 11 11 12 14 16 16 16 17 17 17 17 17 18 17 19 19 20 20 20 20 21 21 21 21 18 19 18 16 18 16 19 19 17 19 20 17 18 16 15 15 13 11 11 11
13 12 12 11 11 13 16 16 16 17 17 17 17 17 18 18 18 19 20 20 20 20 20 21 19 16 17 16 16 14 18 17 18 16 18 18 18 19 14 13 14 12 11 11 10
13 13 12 12 11 11 14 16 16 16 16 16 16 17 17 18 17 18 19 20 18 19 19 17 13 14 13 15 17 17 17 16 18 18 17 17 15 15 15 13 13 12 11 10 10
13 13 12 12 11 11 13 15 14 14 14 17 17 17 16 16 17 17 18 19 18 16 17 15 16 16 15 15 18 16 17 18 17 18 18 16 15 16 16 13 13 12 11 12 12
12 12 12 12 11 11 12 12 15 14 15 14 14 15 16 17 16 16 18 18 18 16 15 15 15 16 16 16 17 17 18 16 16 16 17 15 15 16 16 14 14 16 14 14 13
11 12 12 12 10 10 11 13 14 15 14 15 13 14 15 16 16 15 16 15 16 14 14 15 18 15 16 15 16 15 15 16 17 16 15 15 14 15 16 15 14 13 16 15 15
10 11 12 10 10 10 11 13 14 15 13 15 15 14 14 15 16 15 17 16 15 15 13 15 16 16 15 16 16 15 14 16 16 16 14 15 14 14 17 17 15 17 14 15 15
9 10 10 11 11 10 12 13 14 15 14 16 14 15 13 16 14 14 15 16 14 15 15 16 14 15 15 16 15 16 15 14 16 14 14 14 14 16 15 16 17 19 16 14 14
8 9 9 10 10 11 11 12 12 13 14 15 14 14 14 15 13 13 15 15 15 15 15 15 15 15 16 15 16 13 15 13 11 12 13 14 14 16 15 17 17 18 17 15 13
8 8 9 9 10 11 11 11 10 12 13 14 13 13 14 13 13 14 13 14 14 15 14 15 15 15 15 15 15 16 16 15 13 11 14 12 13 19 18 18 15 17 17 15 13
7 8 8 8 10 11 10 10 11 10 12 13 12 13 14 13 13 12 12 12 13 15 13 15 15 14 14 16 15 14 15 13 14 12 13 11 13 15 15 14 14 13 13 12 11
7 7 7 10 10 10 10 11 13 11 13 12 13 13 13 13 13 13 11 12 13 13 16 13 14 14 14 15 17 14 14 16 16 3 10 15 14 15 14 14 13 13 12 12 10
6 6 6 9 10 10 11 12 13 12 13 14 14 14 12 11 13 11 11 13 14 13 16 16 15 13 14 15 14 15 14 14 11 13 10 14 13 16 18 17 15 14 14 13 11
6 5 9 8 9 9 11 11 12 12 14 14 14 14 13 11 12 11 13 14 12 12 16 15 15 13 13 13 13 14 14 13 13 12 12 11 17 12 17 17 16 16 15 14 12
5 5 8 8 8 9 10 11 11 11 12 14 14 14 13 12 12 11 12 14 12 12 13 14 14 11 12 12 12 13 14 13 12 12 10 10 18 15 14 15 14 14 14 14 11
3 3 9 8 8 8 10 10 11 11 12 12 13 13 14 15 14 13 12 12 12 13 14 14 13 10 13 12 11 12 12 14 12 10 14 11 18 13 14 14 14 13 13 12 11
3 4 4 6 7 8 9 10 10 11 12 13 12 12 13 14 15 13 13 12 11 13 14 15 13 13 15 15 12 11 11 13 16 13 16 15 18 18 17 17 15 14 12 11 10
3 3 4 5 6 6 7 8 10 10 11 12 12 12 12 12 12 14 13 13 11 12 13 14 13 12 15 14 13 12 12 12 15 16 14 17 17 19 18 17 17 15 13 12 10
4 2 3 4 5 6 7 7 7 8 9 11 11 12 11 11 11 11 13 12 13 11 13 12 11 12 12 13 12 12 11 13 13 15 15 16 16 19 19 15 13 13 14 14 11
4 3 4 4 4 5 6 7 7 8 10 10 10 10 11 12 13 13 12 13 14 14 11 11 11 11 13 13 12 12 11 13 14 15 15 14 16 18 17 17 17 16 13 13 12